Location: Arthez
(43.0833°N, 0.2500°W)
Time: 13:34:25
(UTC+00:00)

Cosmos 332 Rocket - Pass Details

Date: 23 October 2021
Orbit: 682 x 703 km, 74.0° (Epoch: 07 December)

Event Time Altitude Azimuth Distance (km) Brightness Sun altitude
Rises 18:37:15 0° 201° (SSW) 3,073 7.4 -17.4°
Reaches altitude 10° 18:39:34 10° 202° (SSW) 2,158 6.6 -17.8°
Maximum altitude 18:44:26 82° 290° (WNW) 711 3.8 -18.7°
Drops below altitude 10° 18:49:20 10° 19° (NNE) 2,162 6.2 -19.6°
Enters shadow 18:51:37 - 20° (NNE) 3,064 7.0 -20.0°
